User: anonymous   Login
Location: Columbia
(38.9520°N, 92.3340°W)
Time: 20:03:41
(UTC-05:00)
Language:

Cosmos 1603 - Orbit

View from above orbital plane
View from above orbital plane
View from above satellite
View from above satellite

Ground track
Ground track

The orbit data is extracted from the following two-line orbital elements,

1 15333U 84106A   14297.62387706  .00000377  00000-0  22330-3 0  1145
2 15333 071.0272 316.1862 0021405 241.9934 256.9819 14.13953566551630
Epoch (UTC): 24 October 2014 14:58:22
Eccentricity: 0.0021405
inclination: 71.0272°
perigee height: 830 km
apogee height: 861 km
right ascension of ascending node: 316.1862°
argument of perigee: 241.9934°
revolutions per day: 14.13953566
mean anomaly at epoch: 256.9819°
orbit number at epoch: 55163

The dashed part of the orbit path shows where the satellite is in the earth's shadow,  

DLR